Simultaneous Nadir Overpasses (SNOs) Predictions

Prediction of SNOs between GOES-14 and NPP Satellite Orbit:

Table of predicted SNOs for the next 14.0 days since TLE Epoch: 9/3/2022
Index Date Time (GOES-14) GOES-14 Lat,Lon NPP Lat,Lon Distance(km) Time Diff (sec)
1 09/03/2022 20:24:21 -0.42,-104.61 -0.35,-104.33 31.79 80
2 09/06/2022 08:27:25 0.40,-104.43 0.54,-105.07 72.48 80
3 09/07/2022 08:06:01 0.40,-104.41 -0.45,-100.53 441.44 80
4 09/08/2022 20:27:59 -0.39,-104.55 -0.66,-105.85 148.34 80
5 09/09/2022 20:11:55 -0.39,-104.55 0.34,-101.32 368.49 80
6 09/11/2022 08:33:43 0.38,-104.42 0.85,-106.59 247.12 80
7 09/12/2022 08:12:18 0.39,-104.40 -0.15,-102.06 267.50 80
8 09/13/2022 20:34:16 -0.37,-104.51 -1.01,-107.37 325.94 80
9 09/14/2022 20:18:11 -0.38,-104.52 -0.01,-102.84 191.27 80
10 09/16/2022 08:39:59 0.36,-104.42 1.19,-108.11 419.90 80
